{"data":{"norad_id":59959,"epoch":"2026-09-21T15:25:56.641152Z","epoch_age_seconds":78846,"freshness":"FRESH","line1":"1 59959U 24107Q   26264.64301668  .00003054  00000+0  10157-3 0  9993","line2":"2 59959  53.1567 232.1005 0001423  90.9120 269.2045 15.34374922129842","mean_motion":15.34374922,"eccentricity":0.0001423,"inclination_deg":53.1567,"raan_deg":232.1005,"arg_perigee_deg":90.912,"mean_anomaly_deg":269.2045,"bstar":0.00010157,"rev_number":12984,"period_min":93.849291939874,"perigee_km":461.8043161503,"apogee_km":463.75124049621,"semimajor_km":6840.9147783233,"source":"CELESTRAK","updated_at":"2026-09-22T09:00:49.118167Z"}}